SPACEBEE-79 (47712 NORAD) Tracking and Keplerian Element Data

This shows tracking and keplerian element data for the satellite.

Feedback or suggestion? Click here.




ElementValue
Catalog47712
NameSPACEBEE-79
Epoch Orbit617
Epoch Day99.89680853
Epoch Year2021
RAAN174.837
Inclination97.4562
Eccentricity0.0011869
Argument of Perigee147.629
Mean Anonmoly212.5677
Mean Motion15.21482409
Decay Rate4.486E-05
L11 47712U 21015P 21099.89680853 .00004486 00000-0 20226-3 0 9995
L22 47712 97.4562 174.8370 0011869 147.6290 212.5677 15.21482409 6170

Live tracking and technical data element details for SPACEBEE-79 (NORAD 47712). SPACEBEE-79 can be tracked NOW for your location showing map with azimuth and elevation plus other details from your city location.

Track the satellite on the map from your city or location and see movement details for azimuth, elevation, latitude, longitude, range, height, and movement on the map or in text.







IsCatalogInMostPopularTable: catalog: 47712, numindb: 9
Update: records affected: 1



GetName: 47712 SPACEBEE-79

Hit Count: updated at: Sat, 10 Apr 2021 18:53:03 GMT